Flag for Brazil Weather past 2 weeks in Fernando de Noronha, Pernambuco, Brazil

Now
77 °F

Passing clouds.


Feels Like: 79 °F
Forecast: 77 / 80 °F
Wind: 12 mph from Southeast

Location: Natal Aeroporto

Current Time: Sep 19, 2014 at 12:35:27 AM

Latest Report: Sep 19, 2014 at 12:00 AM


Visibility: N/A

Pressure: 29.98 "Hg

Humidity: 79%

Dew point: 70 °F

Location of Fernando de NoronhaLocation

Historic Weather in Fernando de Noronha — Graph

°F

Fernando de Noronha temperature yesterday

Maximum temperature yesterday: 84 °F (at 12:00 PM)
Minimum temperature yesterday: 72 °F (at 4:00 AM)
Average temperature yesterday: 78 °F

Past Weeks' High & Low Weather Summary

 TemperatureHumidityPressure
High86 °F (Sep 5, 1:00 PM)100% (Sep 8, 11:00 AM)30.07 "Hg (Sep 8, 11:00 AM)
Low39 °F (Sep 9, 6:00 PM)48% (Sep 15, 4:00 PM)29.86 "Hg (Sep 4, 4:00 PM)
Average77 °F75%29.97 "Hg
* Reported Sep 3 11:00 PM — Sep 18 11:00 PM, Fernando de Noronha, Weather by CustomWeather, © 2014

Note: Actual official high and low records may vary slightly from our data, if they occured in-between our weather recording intervals... More about our weather records

Advertising

Fernando de Noronha weather history for previous 24 hours

 ConditionsComfort  
Time TempWeatherWind HumidityBarometerVisibility
11:00 PM
Sep 18
77 °FPassing clouds.10 mph79%29.98 "HgN/A
10:00 PM79 °FPassing clouds.13 mph74%29.98 "HgN/A
9:00 PM77 °FPassing clouds.10 mph79%29.95 "HgN/A
8:00 PM79 °FPassing clouds.9 mph74%29.95 "HgN/A
7:00 PM79 °FPassing clouds.10 mph74%29.92 "HgN/A
6:00 PM79 °FScattered clouds.14 mph70%29.92 "HgN/A
5:00 PM81 °FScattered clouds.14 mph70%29.92 "HgN/A
4:00 PM82 °FScattered clouds.15 mph62%29.92 "HgN/A
3:00 PM82 °FScattered clouds.16 mph62%29.92 "HgN/A
2:00 PM82 °FScattered showers. Broken clouds.15 mph66%29.95 "HgN/A
1:00 PM81 °FScattered showers. Broken clouds.16 mph74%30.01 "HgN/A
12:00 PM84 °FPartly sunny.15 mph62%30.01 "HgN/A
11:00 AM82 °FPartly sunny.15 mph66%30.04 "HgN/A
10:00 AM81 °FPartly sunny.13 mph66%30.04 "HgN/A
9:00 AM79 °FScattered clouds.9 mph74%30.01 "HgN/A
8:00 AM75 °FScattered clouds.10 mph83%29.98 "HgN/A
7:00 AM72 °FPartly sunny.6 mph88%29.98 "HgN/A
6:00 AM72 °FPassing clouds.6 mph88%29.95 "HgN/A
5:00 AM72 °FPassing clouds.6 mph88%29.95 "HgN/A
4:00 AM72 °FPassing clouds.6 mph94%29.95 "HgN/A
3:00 AM73 °FPassing clouds.6 mph83%29.95 "HgN/A
2:00 AM75 °FPassing clouds.6 mph78%29.95 "HgN/A
1:00 AM77 °FPassing clouds.10 mph74%29.98 "HgN/A
12:00 AM77 °FPassing clouds.13 mph79%29.98 "HgN/A
Weather by CustomWeather, © 2014

See weather overviewHow to use our weather pages